GW5858 Weather Reports


Display with metric or nautical units.
time (UTC)temp
F
wind
direction
speed
MPH
gust
MPH
rain 1hr
in
rain 24hr
in
rain mn
in
humidity
%
barometer
mb
20260508221526 56 333 1.0 8.0 0.00 0.10 0.09 34 1010.3
20260508220031 56 327 3.0 8.0 0.00 0.10 0.09 36 1010.3
20260508214527 56 13 4.0 9.0 0.00 0.10 0.09 38 1010.3
20260508213021 56 301 3.0 9.0 0.00 0.10 0.09 35 1010.3
20260508211525 57 296 2.0 8.0 0.00 0.10 0.09 35 1010.3
20260508210020 57 292 2.0 9.0 0.00 0.10 0.09 39 1010.4
20260508204521 56 241 3.0 10.0 0.00 0.10 0.09 38 1010.4
20260508203027 57 317 3.0 9.0 0.00 0.10 0.09 39 1010.5
20260508201530 57 323 2.0 10.0 0.00 0.10 0.09 37 1010.7
20260508200025 58 335 3.0 9.0 0.00 0.10 0.09 40 1010.9
20260508194524 58 296 3.0 8.0 0.00 0.10 0.09 41 1011.0
20260508193044 57 302 3.0 10.0 0.00 0.10 0.09 41 1011.3
20260508191525 58 330 2.0 8.0 0.00 0.10 0.09 40 1011.4
20260508190036 58 333 2.0 7.0 0.00 0.10 0.09 45 1011.5
20260508184516 58 350 2.0 9.0 0.00 0.10 0.09 46 1011.7
20260508183026 58 286 1.0 9.0 0.00 0.10 0.09 47 1011.8
20260508181527 57 286 2.0 9.0 0.00 0.10 0.09 50 1011.8
20260508180030 57 333 3.0 9.0 0.00 0.10 0.09 55 1012.0
20260508174533 57 298 3.0 7.0 0.00 0.10 0.09 51 1012.0
20260508173022 56 331 2.0 8.0 0.00 0.10 0.09 53 1012.2
20260508171519 54 151 2.0 8.0 0.00 0.10 0.09 53 1012.3
20260508170012 55 9 1.0 8.0 0.00 0.10 0.09 52 1012.3
20260508164524 55 303 2.0 11.0 0.00 0.10 0.09 58 1012.4
20260508163010 55 161 2.0 7.0 0.00 0.10 0.09 52 1012.5
20260508161534 57 40 1.0 11.0 0.00 0.10 0.09 57 1012.8
20260508160007 54 223 2.0 8.0 0.00 0.10 0.09 57 1012.9
20260508154505 54 287 2.0 7.0 0.00 0.10 0.09 64 1012.8
20260508153012 52 257 2.0 5.0 0.00 0.10 0.09 67 1012.9
20260508151522 50 231 2.0 7.0 0.00 0.10 0.09 67 1012.9
20260508150012 49 265 2.0 7.0 0.00 0.10 0.09 73 1013.1
20260508144512 49 360 1.0 7.0 0.00 0.10 0.09 75 1012.9
20260508143011 47 273 2.0 4.0 0.00 0.10 0.09 79 1012.9
20260508141510 47 264 0.0 4.0 0.01 0.10 0.09 76 1013.0
20260508140004 44 222 0.0 2.0 0.01 0.10 0.09 86 1013.0
20260508134521 43 12 0.0 0.0 0.01 0.10 0.09 86 1013.0
20260508133010 42 22 0.0 0.0 0.01 0.10 0.09 88 1012.9
20260508131525 42 22 0.0 1.0 0.01 0.09 0.08 89 1012.9
20260508130012 41 22 0.0 2.0 0.01 0.09 0.08 89 1012.8
20260508124531 41 22 0.0 2.0 0.01 0.09 0.08 88 1013.0
20260508123011 41 22 0.0 2.0 0.02 0.09 0.08 87 1012.9
20260508121525 42 22 0.0 3.0 0.04 0.08 0.07 88 1013.0
20260508120010 41 14 1.0 4.0 0.05 0.08 0.07 88 1012.7
20260508114507 41 352 1.0 6.0 0.05 0.08 0.07 88 1012.9
20260508113009 42 344 4.0 11.0 0.05 0.07 0.06 86 1012.9
20260508111508 42 322 0.0 2.0 0.03 0.04 0.03 88 1012.5
20260508110010 42 322 0.0 2.0 0.02 0.03 0.02 87 1012.0
20260508104508 42 322 0.0 2.0 0.02 0.03 0.02 87 1012.1
20260508103008 43 319 0.0 2.0 0.01 0.02 0.01 85 1012.1
20260508101508 43 325 0.0 2.0 0.00 0.01 0.00 85 1011.9
20260508100010 43 309 0.0 0.0 0.00 0.01 0.00 86 1011.4
20260508094508 43 309 0.0 0.0 0.00 0.01 0.00 84 1011.3
20260508093014 44 309 0.0 2.0 0.00 0.01 0.00 82 1011.3
20260508091517 44 309 1.0 2.0 0.00 0.01 0.00 82 1011.6
20260508090013 44 333 0.0 2.0 0.00 0.01 0.00 82 1011.6
20260508084510 43 333 0.0 2.0 0.00 0.01 0.00 82 1011.6
20260508083016 44 344 0.0 2.0 0.00 0.01 0.00 80 1011.9
20260508081510 44 241 1.0 7.0 0.00 0.01 0.00 80 1011.8
20260508080008 44 250 1.0 5.0 0.00 0.01 0.00 84 1011.8
20260508074507 43 294 1.0 4.0 0.00 0.01 0.00 87 1012.0
20260508073009 43 284 0.0 2.0 0.00 0.01 0.00 88 1012.1
20260508071508 42 284 0.0 0.0 0.00 0.01 0.00 89 1012.0
20260508070010 42 284 0.0 0.0 0.00 0.01 0.00 88 1011.9
20260508064515 42 284 0.0 2.0 0.00 0.01 0.00 89 1012.1
20260508063008 42 284 0.0 2.0 0.00 0.01 0.00 89 1012.1
20260508061507 42 284 0.0 2.0 0.00 0.01 0.00 90 1012.2
20260508060008 42 284 0.0 3.0 0.00 0.01 0.00 90 1012.2
20260508054510 42 242 0.0 2.0 0.00 0.01 0.00 90 1012.1
20260508053007 41 238 0.0 2.0 0.00 0.01 0.00 91 1012.3
20260508051505 41 238 0.0 2.0 0.00 0.01 0.00 92 1012.5
20260508050007 40 127 0.0 2.0 0.00 0.01 0.00 92 1012.5
20260508044506 40 127 0.0 2.0 0.00 0.01 0.00 92 1012.4
20260508043010 39 127 0.0 0.0 0.00 0.01 0.00 91 1012.4
20260508041513 40 127 0.0 0.0 0.00 0.01 0.00 91 1012.5
20260508040009 40 127 0.0 0.0 0.00 0.01 0.00 90 1012.5
20260508034512 40 127 0.0 0.0 0.00 0.01 0.01 90 1012.6
20260508033019 41 127 0.0 0.0 0.00 0.01 0.01 90 1012.3
20260508031509 42 127 0.0 0.0 0.00 0.01 0.01 88 1012.4
20260508030015 42 127 0.0 0.0 0.01 0.01 0.01 86 1012.4
20260508024515 44 127 0.0 0.0 0.01 0.01 0.01 86 1012.4
20260508023007 44 127 0.0 2.0 0.01 0.01 0.01 85 1012.3
20260508021510 45 127 0.0 4.0 0.01 0.01 0.01 84 1012.2
20260508020006 45 19 1.0 8.0 0.00 0.00 0.00 82 1012.2
20260508014512 45 333 2.0 8.0 0.00 0.00 0.00 80 1012.0
20260508013008 45 5 4.0 13.0 0.00 0.00 0.00 74 1012.3
20260508011507 47 340 4.0 11.0 0.00 0.00 0.00 72 1012.0
20260508010015 47 345 3.0 6.0 0.00 0.00 0.00 68 1011.6
20260508004508 47 331 0.0 3.0 0.00 0.00 0.00 69 1011.3
20260508003007 47 26 1.0 10.0 0.00 0.00 0.00 69 1011.2
20260508001526 47 29 2.0 12.0 0.00 0.00 0.00 67 1011.1
20260508000026 49 336 4.0 11.0 0.00 0.00 0.00 62 1011.0
20260507234527 49 323 3.0 7.0 0.00 0.00 0.00 53 1010.9
20260507233021 50 296 1.0 10.0 0.00 0.00 0.00 52 1010.8
20260507231519 51 301 4.0 10.0 0.00 0.00 0.00 49 1010.7
20260507230027 51 278 2.0 8.0 0.00 0.00 0.00 52 1010.7
20260507224512 52 264 2.0 7.0 0.00 0.00 0.00 55 1010.6
20260507223054 53 269 2.0 10.0 0.00 0.00 0.00 54 1010.5